| time (UTC) | temp F | wind direction | speed MPH | gust MPH | rain 1hr in | rain 24hr in | rain mn in | humidity % | barometer mb |
| 20260904105054 | 78 | 158 | 2.0 | 7.0 | 0.00 | 0.00 | 0.00 | 80 | 1013.0 |
| 20260904104548 | 78 | 170 | 2.0 | 7.0 | 0.00 | 0.00 | 0.00 | 80 | 1013.0 |
| 20260904104045 | 78 | 139 | 2.0 | 7.0 | 0.00 | 0.00 | 0.00 | 80 | 1012.9 |
| 20260904103536 | 78 | 174 | 2.0 | 7.0 | 0.00 | 0.00 | 0.00 | 80 | 1012.8 |
| 20260904103037 | 78 | 146 | 3.0 | 8.0 | 0.00 | 0.00 | 0.00 | 80 | 1012.8 |
| 20260904102530 | 78 | 176 | 4.0 | 9.0 | 0.00 | 0.00 | 0.00 | 80 | 1012.8 |
| 20260904102029 | 78 | 164 | 3.0 | 9.0 | 0.00 | 0.00 | 0.00 | 79 | 1012.7 |
| 20260904101528 | 78 | 170 | 3.0 | 7.0 | 0.00 | 0.00 | 0.00 | 79 | 1012.7 |
| 20260904101025 | 78 | 156 | 3.0 | 7.0 | 0.00 | 0.00 | 0.00 | 79 | 1012.8 |
| 20260904100523 | 78 | 139 | 2.0 | 6.0 | 0.00 | 0.00 | 0.00 | 79 | 1012.8 |
| 20260904100010 | 78 | 147 | 2.0 | 4.0 | 0.00 | 0.00 | 0.00 | 79 | 1012.8 |
| 20260904095503 | 78 | 165 | 2.0 | 7.0 | 0.00 | 0.00 | 0.00 | 79 | 1012.9 |
| 20260904095457 | 79 | 157 | 3.0 | 7.0 | 0.00 | 0.00 | 0.00 | 79 | 1012.8 |
| 20260904094455 | 78 | 171 | 3.0 | 9.0 | 0.00 | 0.00 | 0.00 | 79 | 1012.7 |
| 20260904093951 | 78 | 137 | 3.0 | 9.0 | 0.00 | 0.00 | 0.00 | 79 | 1012.7 |
| 20260904093448 | 79 | 171 | 3.0 | 8.0 | 0.00 | 0.00 | 0.00 | 79 | 1012.7 |
| 20260904092939 | 78 | 175 | 3.0 | 10.0 | 0.00 | 0.00 | 0.00 | 79 | 1012.8 |
| 20260904092437 | 78 | 151 | 3.0 | 10.0 | 0.00 | 0.00 | 0.00 | 79 | 1012.8 |
| 20260904091927 | 78 | 134 | 3.0 | 10.0 | 0.00 | 0.00 | 0.00 | 79 | 1012.7 |
| 20260904091919 | 78 | 173 | 3.0 | 10.0 | 0.00 | 0.00 | 0.00 | 79 | 1012.7 |
| 20260904090909 | 78 | 155 | 4.0 | 10.0 | 0.00 | 0.00 | 0.00 | 79 | 1012.7 |
| 20260904090359 | 78 | 186 | 4.0 | 11.0 | 0.00 | 0.00 | 0.00 | 79 | 1012.7 |
| 20260904085849 | 78 | 169 | 3.0 | 11.0 | 0.00 | 0.00 | 0.00 | 79 | 1012.7 |
| 20260904085339 | 79 | 149 | 3.0 | 9.0 | 0.00 | 0.00 | 0.00 | 79 | 1012.8 |
| 20260904084830 | 79 | 183 | 4.0 | 10.0 | 0.00 | 0.00 | 0.00 | 79 | 1012.7 |
| 20260904084319 | 79 | 154 | 3.0 | 8.0 | 0.00 | 0.00 | 0.00 | 79 | 1012.7 |
| 20260904083815 | 79 | 209 | 3.0 | 8.0 | 0.00 | 0.00 | 0.00 | 79 | 1012.7 |
| 20260904083305 | 79 | 172 | 3.0 | 8.0 | 0.00 | 0.00 | 0.00 | 79 | 1012.6 |
| 20260904082755 | 79 | 201 | 4.0 | 8.0 | 0.00 | 0.00 | 0.00 | 78 | 1012.6 |
| 20260904082246 | 79 | 147 | 3.0 | 9.0 | 0.00 | 0.00 | 0.00 | 78 | 1012.6 |
| 20260904081736 | 79 | 141 | 3.0 | 9.0 | 0.00 | 0.00 | 0.00 | 78 | 1012.5 |
| 20260904081225 | 79 | 162 | 3.0 | 8.0 | 0.00 | 0.00 | 0.00 | 78 | 1012.5 |
| 20260904080707 | 79 | 177 | 4.0 | 10.0 | 0.00 | 0.00 | 0.00 | 78 | 1012.5 |
| 20260904080157 | 79 | 182 | 4.0 | 10.0 | 0.00 | 0.00 | 0.00 | 78 | 1012.6 |
| 20260904080150 | 79 | 178 | 4.0 | 10.0 | 0.00 | 0.00 | 0.00 | 78 | 1012.6 |
| 20260904075754 | 79 | 200 | 4.0 | 10.0 | 0.00 | 0.00 | 0.00 | 78 | 1012.5 |
| 20260904074638 | 79 | 212 | 4.0 | 10.0 | 0.00 | 0.00 | 0.00 | 78 | 1012.5 |
| 20260904074206 | 79 | 178 | 5.0 | 11.0 | 0.00 | 0.00 | 0.00 | 77 | 1012.6 |
| 20260904074127 | 79 | 199 | 4.0 | 11.0 | 0.00 | 0.00 | 0.00 | 77 | 1012.6 |
| 20260904073203 | 79 | 137 | 5.0 | 10.0 | 0.00 | 0.00 | 0.00 | 77 | 1012.6 |
| 20260904072047 | 79 | 166 | 5.0 | 10.0 | 0.00 | 0.00 | 0.00 | 77 | 1012.8 |
| 20260904071537 | 79 | 139 | 4.0 | 11.0 | 0.00 | 0.00 | 0.00 | 77 | 1012.8 |
| 20260904071027 | 79 | 167 | 4.0 | 10.0 | 0.00 | 0.00 | 0.00 | 76 | 1012.9 |
| 20260904070517 | 79 | 168 | 4.0 | 10.0 | 0.00 | 0.00 | 0.00 | 76 | 1012.8 |
| 20260904070007 | 79 | 163 | 4.0 | 9.0 | 0.00 | 0.00 | 0.00 | 76 | 1012.9 |
| 20260904065457 | 79 | 175 | 4.0 | 11.0 | 0.00 | 0.00 | 0.00 | 76 | 1013.0 |
| 20260904064947 | 79 | 136 | 3.0 | 11.0 | 0.00 | 0.00 | 0.00 | 76 | 1013.0 |
| 20260904064437 | 79 | 154 | 4.0 | 10.0 | 0.00 | 0.00 | 0.00 | 76 | 1012.9 |
| 20260904063927 | 79 | 195 | 4.0 | 9.0 | 0.00 | 0.00 | 0.00 | 76 | 1013.0 |
| 20260904063418 | 79 | 174 | 4.0 | 12.0 | 0.00 | 0.00 | 0.00 | 76 | 1012.9 |
| 20260904062900 | 79 | 173 | 5.0 | 12.0 | 0.00 | 0.00 | 0.00 | 76 | 1012.9 |
| 20260904062349 | 79 | 168 | 5.0 | 12.0 | 0.00 | 0.00 | 0.00 | 76 | 1012.9 |
| 20260904061839 | 79 | 236 | 4.0 | 11.0 | 0.00 | 0.00 | 0.00 | 75 | 1012.9 |
| 20260904061329 | 79 | 161 | 4.0 | 11.0 | 0.00 | 0.00 | 0.00 | 75 | 1013.0 |
| 20260904061311 | 79 | 178 | 5.0 | 12.0 | 0.00 | 0.00 | 0.00 | 75 | 1013.0 |
| 20260904060916 | 79 | 170 | 4.0 | 9.0 | 0.00 | 0.00 | 0.00 | 75 | 1013.1 |
| 20260904055759 | 79 | 136 | 6.0 | 12.0 | 0.00 | 0.00 | 0.00 | 75 | 1013.1 |
| 20260904055249 | 79 | 163 | 5.0 | 14.0 | 0.00 | 0.00 | 0.00 | 75 | 1013.1 |
| 20260904054734 | 79 | 180 | 4.0 | 14.0 | 0.00 | 0.00 | 0.00 | 75 | 1013.0 |
| 20260904054235 | 79 | 160 | 5.0 | 12.0 | 0.00 | 0.00 | 0.00 | 74 | 1013.0 |
| 20260904053729 | 79 | 137 | 4.0 | 11.0 | 0.00 | 0.00 | 0.00 | 74 | 1013.0 |
| 20260904053227 | 79 | 138 | 3.0 | 10.0 | 0.00 | 0.00 | 0.00 | 74 | 1013.0 |
| 20260904052717 | 80 | 155 | 5.0 | 12.0 | 0.00 | 0.00 | 0.00 | 74 | 1012.9 |
| 20260904052207 | 80 | 156 | 6.0 | 13.0 | 0.00 | 0.00 | 0.00 | 73 | 1012.9 |
| 20260904052158 | 80 | 193 | 6.0 | 13.0 | 0.00 | 0.00 | 0.00 | 73 | 1012.8 |
| 20260904051146 | 80 | 169 | 6.0 | 11.0 | 0.00 | 0.00 | 0.00 | 72 | 1012.8 |
| 20260904050637 | 80 | 112 | 5.0 | 11.0 | 0.00 | 0.00 | 0.00 | 72 | 1012.8 |
| 20260904050125 | 80 | 131 | 6.0 | 12.0 | 0.00 | 0.00 | 0.00 | 71 | 1012.9 |
| 20260904045618 | 80 | 155 | 6.0 | 12.0 | 0.00 | 0.00 | 0.00 | 71 | 1013.0 |
| 20260904045110 | 80 | 130 | 6.0 | 14.0 | 0.00 | 0.00 | 0.00 | 70 | 1013.0 |
| 20260904044553 | 80 | 171 | 6.0 | 14.0 | 0.00 | 0.00 | 0.00 | 70 | 1013.0 |
| 20260904044051 | 80 | 207 | 5.0 | 10.0 | 0.00 | 0.00 | 0.00 | 69 | 1012.9 |
| 20260904043544 | 80 | 116 | 4.0 | 13.0 | 0.00 | 0.00 | 0.00 | 68 | 1012.9 |
| 20260904043537 | 80 | 166 | 5.0 | 12.0 | 0.00 | 0.00 | 0.00 | 68 | 1013.0 |
| 20260904042535 | 80 | 134 | 5.0 | 12.0 | 0.00 | 0.00 | 0.00 | 67 | 1012.9 |
| 20260904042531 | 80 | 141 | 5.0 | 12.0 | 0.00 | 0.00 | 0.00 | 67 | 1013.0 |
| 20260904041523 | 81 | 146 | 3.0 | 10.0 | 0.00 | 0.00 | 0.00 | 66 | 1013.0 |
| 20260904041518 | 81 | 118 | 4.0 | 10.0 | 0.00 | 0.00 | 0.00 | 66 | 1013.1 |
| 20260904040507 | 81 | 129 | 4.0 | 10.0 | 0.00 | 0.00 | 0.00 | 66 | 1013.0 |
| 20260904040010 | 81 | 134 | 4.0 | 9.0 | 0.00 | 0.00 | 0.00 | 66 | 1013.0 |
| 20260904040005 | 81 | 135 | 4.0 | 10.0 | 0.00 | 0.00 | 0.00 | 66 | 1013.0 |
| 20260904035502 | 81 | 137 | 4.0 | 9.0 | 0.00 | 0.00 | 0.00 | 66 | 1012.9 |
| 20260904034452 | 81 | 93 | 3.0 | 9.0 | 0.00 | 0.00 | 0.00 | 66 | 1012.9 |
| 20260904033949 | 81 | 119 | 4.0 | 8.0 | 0.00 | 0.00 | 0.00 | 67 | 1013.0 |
| 20260904033441 | 81 | 136 | 4.0 | 10.0 | 0.00 | 0.00 | 0.00 | 67 | 1013.0 |
| 20260904033436 | 81 | 127 | 5.0 | 14.0 | 0.00 | 0.00 | 0.00 | 66 | 1012.9 |
| 20260904032432 | 82 | 105 | 6.0 | 15.0 | 0.00 | 0.00 | 0.00 | 66 | 1012.9 |
| 20260904031934 | 82 | 161 | 4.0 | 11.0 | 0.00 | 0.00 | 0.00 | 66 | 1012.9 |
| 20260904031429 | 82 | 130 | 4.0 | 11.0 | 0.00 | 0.00 | 0.00 | 67 | 1012.8 |
| 20260904030925 | 82 | 163 | 5.0 | 12.0 | 0.00 | 0.00 | 0.00 | 67 | 1012.8 |
| 20260904030418 | 82 | 149 | 5.0 | 12.0 | 0.00 | 0.00 | 0.00 | 67 | 1012.7 |
| 20260904030412 | 82 | 145 | 4.0 | 11.0 | 0.00 | 0.00 | 0.00 | 67 | 1012.7 |
| 20260904025359 | 82 | 132 | 4.0 | 13.0 | 0.00 | 0.00 | 0.00 | 67 | 1012.7 |
| 20260904025351 | 82 | 161 | 4.0 | 13.0 | 0.00 | 0.00 | 0.00 | 67 | 1012.7 |
| 20260904024343 | 82 | 108 | 4.0 | 12.0 | 0.00 | 0.00 | 0.00 | 67 | 1012.5 |
| 20260904023837 | 83 | 123 | 4.0 | 12.0 | 0.00 | 0.00 | 0.00 | 67 | 1012.5 |
| 20260904023327 | 83 | 145 | 4.0 | 9.0 | 0.00 | 0.00 | 0.00 | 67 | 1012.4 |
| 20260904022818 | 83 | 135 | 6.0 | 15.0 | 0.00 | 0.00 | 0.00 | 67 | 1012.4 |
| 20260904022308 | 83 | 93 | 6.0 | 15.0 | 0.00 | 0.00 | 0.00 | 66 | 1012.3 |
| 20260904021758 | 83 | 185 | 6.0 | 11.0 | 0.00 | 0.00 | 0.00 | 66 | 1012.2 |
| 20260904021248 | 83 | 144 | 7.0 | 17.0 | 0.00 | 0.00 | 0.00 | 65 | 1012.1 |
| 20260904020747 | 83 | 155 | 6.0 | 14.0 | 0.00 | 0.00 | 0.00 | 65 | 1012.0 |
| 20260904020237 | 83 | 91 | 6.0 | 17.0 | 0.00 | 0.00 | 0.00 | 65 | 1011.9 |
| 20260904020229 | 84 | 95 | 5.0 | 14.0 | 0.00 | 0.00 | 0.00 | 65 | 1011.8 |
| 20260904015218 | 84 | 126 | 4.0 | 15.0 | 0.00 | 0.00 | 0.00 | 65 | 1011.7 |
| 20260904014710 | 84 | 161 | 5.0 | 15.0 | 0.00 | 0.00 | 0.00 | 65 | 1011.5 |
| 20260904014209 | 85 | 127 | 5.0 | 14.0 | 0.00 | 0.00 | 0.00 | 65 | 1011.5 |
| 20260904014201 | 85 | 139 | 5.0 | 18.0 | 0.00 | 0.00 | 0.00 | 65 | 1011.5 |
| 20260904013150 | 85 | 134 | 6.0 | 18.0 | 0.00 | 0.00 | 0.00 | 64 | 1011.4 |
| 20260904012639 | 86 | 108 | 6.0 | 17.0 | 0.00 | 0.00 | 0.00 | 63 | 1011.2 |
| 20260904012612 | 86 | 143 | 7.0 | 15.0 | 0.00 | 0.00 | 0.00 | 58 | 1011.1 |
| 20260904012216 | 86 | 118 | 6.0 | 15.0 | 0.00 | 0.00 | 0.00 | 60 | 1011.1 |
| 20260904011059 | 86 | 149 | 8.0 | 15.0 | 0.00 | 0.00 | 0.00 | 58 | 1011.2 |
| 20260904010551 | 86 | 105 | 8.0 | 18.0 | 0.00 | 0.00 | 0.00 | 57 | 1011.1 |
| 20260904010039 | 86 | 122 | 8.0 | 18.0 | 0.00 | 0.00 | 0.00 | 56 | 1011.1 |
| 20260904005529 | 86 | 153 | 7.0 | 16.0 | 0.00 | 0.00 | 0.00 | 56 | 1011.2 |
| 20260904005019 | 86 | 157 | 8.0 | 15.0 | 0.00 | 0.00 | 0.00 | 56 | 1011.1 |
| 20260904005001 | 87 | 120 | 8.0 | 17.0 | 0.00 | 0.00 | 0.00 | 57 | 1011.0 |
| 20260904004606 | 87 | 121 | 8.0 | 16.0 | 0.00 | 0.00 | 0.00 | 56 | 1011.1 |
| 20260904003450 | 87 | 134 | 7.0 | 16.0 | 0.00 | 0.00 | 0.00 | 57 | 1011.0 |
| 20260904002931 | 87 | 138 | 6.0 | 19.0 | 0.00 | 0.00 | 0.00 | 57 | 1011.0 |
| 20260904002421 | 87 | 129 | 7.0 | 19.0 | 0.00 | 0.00 | 0.00 | 57 | 1011.0 |
| 20260904001911 | 88 | 141 | 7.0 | 15.0 | 0.00 | 0.00 | 0.00 | 57 | 1011.0 |
| 20260904001402 | 88 | 158 | 7.0 | 17.0 | 0.00 | 0.00 | 0.00 | 57 | 1011.1 |
| 20260904000940 | 88 | 150 | 7.0 | 17.0 | 0.00 | 0.00 | 0.00 | 57 | 1011.1 |
| 20260904000851 | 88 | 172 | 7.0 | 15.0 | 0.00 | 0.00 | 0.00 | 57 | 1011.1 |
| 20260904000835 | 88 | 157 | 8.0 | 17.0 | 0.00 | 0.00 | 0.00 | 57 | 1010.8 |
| 20260903235944 | 89 | 125 | 7.0 | 15.0 | 0.00 | 0.00 | 0.00 | 56 | 1010.8 |
| 20260903234832 | 89 | 132 | 7.0 | 15.0 | 0.00 | 0.00 | 0.00 | 56 | 1010.8 |
| 20260903234327 | 89 | 130 | 7.0 | 16.0 | 0.00 | 0.00 | 0.00 | 56 | 1010.7 |
| 20260903233829 | 89 | 107 | 7.0 | 16.0 | 0.00 | 0.00 | 0.00 | 56 | 1010.7 |
| 20260903233313 | 89 | 126 | 7.0 | 16.0 | 0.00 | 0.00 | 0.00 | 56 | 1010.7 |
| 20260903232815 | 90 | 157 | 7.0 | 13.0 | 0.00 | 0.00 | 0.00 | 56 | 1010.7 |
| 20260903232306 | 90 | 164 | 6.0 | 14.0 | 0.00 | 0.00 | 0.00 | 56 | 1010.6 |
| 20260903231755 | 90 | 134 | 7.0 | 14.0 | 0.00 | 0.00 | 0.00 | 57 | 1010.6 |
| 20260903231245 | 90 | 135 | 7.0 | 16.0 | 0.00 | 0.00 | 0.00 | 57 | 1010.6 |
| 20260903231232 | 90 | 141 | 7.0 | 16.0 | 0.00 | 0.00 | 0.00 | 57 | 1010.6 |
| 20260903230213 | 90 | 142 | 8.0 | 15.0 | 0.00 | 0.00 | 0.00 | 57 | 1010.5 |
| 20260903225703 | 90 | 145 | 8.0 | 15.0 | 0.00 | 0.00 | 0.00 | 56 | 1010.4 |
| 20260903225153 | 90 | 120 | 7.0 | 16.0 | 0.00 | 0.00 | 0.00 | 56 | 1010.5 |
| 20260903224643 | 91 | 97 | 8.0 | 17.0 | 0.00 | 0.00 | 0.00 | 55 | 1010.4 |
| 20260903224133 | 91 | 105 | 8.0 | 17.0 | 0.00 | 0.00 | 0.00 | 56 | 1010.4 |
| 20260903223623 | 91 | 141 | 7.0 | 16.0 | 0.00 | 0.00 | 0.00 | 56 | 1010.3 |
| 20260903223113 | 92 | 145 | 6.0 | 13.0 | 0.00 | 0.00 | 0.00 | 55 | 1010.4 |
| 20260903222555 | 91 | 146 | 8.0 | 16.0 | 0.00 | 0.00 | 0.00 | 56 | 1010.5 |
| 20260903222545 | 91 | 140 | 8.0 | 16.0 | 0.00 | 0.00 | 0.00 | 56 | 1010.5 |
| 20260903221527 | 92 | 133 | 7.0 | 16.0 | 0.00 | 0.00 | 0.00 | 55 | 1010.5 |
| 20260903221017 | 92 | 152 | 6.0 | 14.0 | 0.00 | 0.00 | 0.00 | 55 | 1010.5 |
| 20260903221008 | 92 | 150 | 6.0 | 13.0 | 0.00 | 0.00 | 0.00 | 54 | 1010.5 |
| 20260903215957 | 93 | 108 | 5.0 | 12.0 | 0.00 | 0.00 | 0.00 | 53 | 1010.4 |
| 20260903215447 | 93 | 176 | 4.0 | 12.0 | 0.00 | 0.00 | 0.00 | 53 | 1010.5 |
| 20260903215438 | 93 | 151 | 5.0 | 15.0 | 0.00 | 0.00 | 0.00 | 54 | 1010.5 |
| 20260903214427 | 93 | 113 | 6.0 | 15.0 | 0.00 | 0.00 | 0.00 | 54 | 1010.5 |
| 20260903213923 | 92 | 184 | 6.0 | 14.0 | 0.00 | 0.00 | 0.00 | 55 | 1010.6 |
| 20260903213430 | 92 | 140 | 7.0 | 13.0 | 0.00 | 0.00 | 0.00 | 56 | 1010.7 |
| 20260903213425 | 92 | 132 | 5.0 | 12.0 | 0.00 | 0.00 | 0.00 | 55 | 1010.6 |
| 20260903212922 | 92 | 134 | 6.0 | 11.0 | 0.00 | 0.00 | 0.00 | 56 | 1010.7 |
| 20260903211921 | 91 | 201 | 7.0 | 13.0 | 0.00 | 0.00 | 0.00 | 56 | 1010.7 |
| 20260903211412 | 92 | 180 | 6.0 | 13.0 | 0.00 | 0.00 | 0.00 | 55 | 1010.8 |
| 20260903210911 | 92 | 234 | 6.0 | 12.0 | 0.00 | 0.00 | 0.00 | 56 | 1011.0 |
| 20260903210352 | 91 | 148 | 6.0 | 12.0 | 0.00 | 0.00 | 0.00 | 57 | 1011.0 |
| 20260903205843 | 91 | 284 | 6.0 | 12.0 | 0.00 | 0.00 | 0.00 | 57 | 1011.1 |
| 20260903205826 | 90 | 218 | 5.0 | 13.0 | 0.00 | 0.00 | 0.00 | 59 | 1011.4 |
| 20260903205429 | 90 | 166 | 6.0 | 13.0 | 0.00 | 0.00 | 0.00 | 58 | 1011.3 |
| 20260903204314 | 91 | 165 | 5.0 | 11.0 | 0.00 | 0.00 | 0.00 | 58 | 1011.4 |
| 20260903203803 | 90 | 188 | 6.0 | 15.0 | 0.00 | 0.00 | 0.00 | 58 | 1011.4 |
| 20260903203253 | 90 | 97 | 7.0 | 15.0 | 0.00 | 0.00 | 0.00 | 59 | 1011.5 |
| 20260903203243 | 90 | 161 | 8.0 | 14.0 | 0.00 | 0.00 | 0.00 | 59 | 1011.6 |
| 20260903202223 | 90 | 195 | 7.0 | 14.0 | 0.00 | 0.00 | 0.00 | 59 | 1011.6 |
| 20260903201714 | 91 | 130 | 5.0 | 12.0 | 0.00 | 0.00 | 0.00 | 58 | 1011.5 |
| 20260903201203 | 92 | 134 | 4.0 | 11.0 | 0.00 | 0.00 | 0.00 | 58 | 1011.5 |
| 20260903201151 | 91 | 117 | 4.0 | 12.0 | 0.00 | 0.00 | 0.00 | 58 | 1011.6 |
| 20260903200141 | 91 | 214 | 7.0 | 15.0 | 0.00 | 0.00 | 0.00 | 58 | 1011.6 |
| 20260903195632 | 92 | 218 | 7.0 | 15.0 | 0.00 | 0.00 | 0.00 | 56 | 1011.6 |
| 20260903195121 | 91 | 200 | 6.0 | 15.0 | 0.00 | 0.00 | 0.00 | 58 | 1011.7 |
| 20260903194613 | 90 | 163 | 7.0 | 12.0 | 0.00 | 0.00 | 0.00 | 60 | 1011.8 |
| 20260903194106 | 90 | 129 | 7.0 | 16.0 | 0.00 | 0.00 | 0.00 | 59 | 1011.8 |
| 20260903193557 | 92 | 182 | 6.0 | 15.0 | 0.00 | 0.00 | 0.00 | 58 | 1011.8 |
| 20260903193551 | 92 | 164 | 7.0 | 19.0 | 0.00 | 0.00 | 0.00 | 57 | 1011.9 |
| 20260903192546 | 91 | 155 | 9.0 | 19.0 | 0.00 | 0.00 | 0.00 | 59 | 1012.0 |
| 20260903192029 | 90 | 194 | 8.0 | 18.0 | 0.00 | 0.00 | 0.00 | 61 | 1012.1 |
| 20260903192019 | 90 | 224 | 7.0 | 15.0 | 0.00 | 0.00 | 0.00 | 61 | 1012.1 |
| 20260903191011 | 89 | 184 | 8.0 | 19.0 | 0.00 | 0.00 | 0.00 | 62 | 1012.2 |
| 20260903190453 | 89 | 188 | 9.0 | 19.0 | 0.00 | 0.00 | 0.00 | 62 | 1012.2 |
| 20260903185949 | 89 | 149 | 9.0 | 17.0 | 0.00 | 0.00 | 0.00 | 62 | 1012.4 |
| 20260903185441 | 89 | 93 | 8.0 | 18.0 | 0.00 | 0.00 | 0.00 | 62 | 1012.5 |
| 20260903184934 | 89 | 149 | 7.0 | 17.0 | 0.00 | 0.00 | 0.00 | 63 | 1012.5 |
| 20260903184926 | 87 | 128 | 9.0 | 17.0 | 0.00 | 0.00 | 0.00 | 65 | 1012.7 |
| 20260903183915 | 87 | 148 | 9.0 | 18.0 | 0.00 | 0.00 | 0.00 | 65 | 1012.8 |
| 20260903183412 | 87 | 243 | 8.0 | 18.0 | 0.00 | 0.00 | 0.00 | 66 | 1012.8 |
| 20260903182859 | 87 | 138 | 8.0 | 17.0 | 0.00 | 0.00 | 0.00 | 66 | 1013.0 |
| 20260903182351 | 87 | 154 | 7.0 | 18.0 | 0.00 | 0.00 | 0.00 | 65 | 1012.9 |
| 20260903181847 | 87 | 195 | 8.0 | 20.0 | 0.00 | 0.00 | 0.00 | 66 | 1012.9 |
| 20260903181344 | 86 | 141 | 8.0 | 20.0 | 0.00 | 0.00 | 0.00 | 66 | 1012.9 |
| 20260903181337 | 87 | 165 | 6.0 | 15.0 | 0.00 | 0.00 | 0.00 | 66 | 1013.0 |
| 20260903180333 | 87 | 159 | 6.0 | 16.0 | 0.00 | 0.00 | 0.00 | 66 | 1013.0 |
| 20260903175830 | 87 | 142 | 7.0 | 16.0 | 0.00 | 0.00 | 0.00 | 65 | 1013.0 |
| 20260903175326 | 88 | 149 | 8.0 | 17.0 | 0.00 | 0.00 | 0.00 | 63 | 1013.0 |
| 20260903174825 | 87 | 137 | 9.0 | 17.0 | 0.00 | 0.00 | 0.00 | 65 | 1013.1 |
| 20260903174317 | 87 | 168 | 9.0 | 17.0 | 0.00 | 0.00 | 0.00 | 65 | 1013.2 |
| 20260903174310 | 87 | 170 | 8.0 | 19.0 | 0.00 | 0.00 | 0.00 | 66 | 1013.2 |
| 20260903173259 | 87 | 196 | 8.0 | 19.0 | 0.00 | 0.00 | 0.00 | 65 | 1013.3 |
| 20260903172757 | 87 | 186 | 7.0 | 21.0 | 0.00 | 0.00 | 0.00 | 67 | 1013.3 |
| 20260903172252 | 86 | 139 | 7.0 | 21.0 | 0.00 | 0.00 | 0.00 | 67 | 1013.3 |
| 20260903171749 | 86 | 186 | 8.0 | 15.0 | 0.00 | 0.00 | 0.00 | 66 | 1013.3 |
| 20260903171239 | 86 | 168 | 9.0 | 17.0 | 0.00 | 0.00 | 0.00 | 67 | 1013.4 |
| 20260903170732 | 86 | 191 | 8.0 | 17.0 | 0.00 | 0.00 | 0.00 | 68 | 1013.4 |
| 20260903170226 | 86 | 134 | 7.0 | 16.0 | 0.00 | 0.00 | 0.00 | 68 | 1013.4 |
| 20260903165720 | 85 | 135 | 8.0 | 14.0 | 0.00 | 0.00 | 0.00 | 70 | 1013.4 |
| 20260903165211 | 85 | 125 | 7.0 | 14.0 | 0.00 | 0.00 | 0.00 | 69 | 1013.3 |
| 20260903164659 | 85 | 159 | 6.0 | 16.0 | 0.00 | 0.00 | 0.00 | 69 | 1013.3 |
| 20260903164152 | 85 | 150 | 8.0 | 16.0 | 0.00 | 0.00 | 0.00 | 69 | 1013.4 |
| 20260903163643 | 84 | 155 | 9.0 | 16.0 | 0.00 | 0.00 | 0.00 | 70 | 1013.4 |
| 20260903163634 | 84 | 143 | 8.0 | 16.0 | 0.00 | 0.00 | 0.00 | 70 | 1013.4 |
| 20260903163246 | 84 | 135 | 7.0 | 15.0 | 0.00 | 0.00 | 0.00 | 70 | 1013.5 |
| 20260903163115 | 84 | 174 | 7.0 | 13.0 | 0.00 | 0.00 | 0.00 | 70 | 1013.5 |
| 20260903161602 | 84 | 170 | 7.0 | 14.0 | 0.00 | 0.00 | 0.00 | 70 | 1013.5 |
| 20260903161052 | 84 | 170 | 7.0 | 17.0 | 0.00 | 0.00 | 0.00 | 71 | 1013.5 |
| 20260903160542 | 84 | 137 | 6.0 | 17.0 | 0.00 | 0.00 | 0.00 | 70 | 1013.5 |
| 20260903160032 | 85 | 155 | 6.0 | 12.0 | 0.00 | 0.00 | 0.00 | 70 | 1013.5 |
| 20260903155522 | 85 | 177 | 7.0 | 12.0 | 0.00 | 0.00 | 0.00 | 70 | 1013.6 |
| 20260903155013 | 84 | 186 | 7.0 | 12.0 | 0.00 | 0.00 | 0.00 | 71 | 1013.5 |
| 20260903154502 | 84 | 190 | 6.0 | 13.0 | 0.00 | 0.00 | 0.00 | 72 | 1013.4 |
| 20260903154453 | 83 | 140 | 7.0 | 13.0 | 0.00 | 0.00 | 0.00 | 72 | 1013.4 |
| 20260903153442 | 82 | 157 | 6.0 | 12.0 | 0.00 | 0.00 | 0.00 | 74 | 1013.4 |
| 20260903152932 | 81 | 184 | 6.0 | 12.0 | 0.00 | 0.00 | 0.00 | 75 | 1013.4 |
| 20260903152422 | 81 | 157 | 4.0 | 11.0 | 0.00 | 0.00 | 0.00 | 76 | 1013.3 |
| 20260903151912 | 81 | 134 | 4.0 | 10.0 | 0.00 | 0.00 | 0.00 | 76 | 1013.5 |
| 20260903151402 | 80 | 122 | 4.0 | 10.0 | 0.00 | 0.00 | 0.00 | 76 | 1013.4 |
| 20260903150852 | 80 | 139 | 4.0 | 10.0 | 0.00 | 0.00 | 0.00 | 76 | 1013.3 |
| 20260903150342 | 80 | 140 | 5.0 | 10.0 | 0.00 | 0.00 | 0.00 | 76 | 1013.3 |
| 20260903145832 | 80 | 160 | 5.0 | 11.0 | 0.00 | 0.00 | 0.00 | 76 | 1013.3 |
| 20260903145823 | 80 | 147 | 4.0 | 11.0 | 0.00 | 0.00 | 0.00 | 76 | 1013.4 |
| 20260903144813 | 80 | 134 | 3.0 | 9.0 | 0.00 | 0.00 | 0.00 | 76 | 1013.5 |
| 20260903144302 | 80 | 142 | 4.0 | 12.0 | 0.00 | 0.00 | 0.00 | 76 | 1013.6 |
| 20260903143752 | 80 | 122 | 4.0 | 12.0 | 0.00 | 0.00 | 0.00 | 76 | 1013.6 |
| 20260903143242 | 80 | 139 | 3.0 | 9.0 | 0.00 | 0.00 | 0.00 | 76 | 1013.6 |
| 20260903142732 | 80 | 101 | 4.0 | 11.0 | 0.00 | 0.00 | 0.00 | 76 | 1013.6 |
| 20260903142725 | 79 | 139 | 3.0 | 11.0 | 0.00 | 0.00 | 0.00 | 77 | 1013.4 |
| 20260903142328 | 80 | 191 | 4.0 | 11.0 | 0.00 | 0.00 | 0.00 | 76 | 1013.5 |
| 20260903141214 | 79 | 141 | 4.0 | 11.0 | 0.00 | 0.00 | 0.00 | 77 | 1013.3 |
| 20260903140657 | 79 | 145 | 4.0 | 12.0 | 0.00 | 0.00 | 0.00 | 77 | 1013.4 |
| 20260903140144 | 79 | 87 | 4.0 | 12.0 | 0.00 | 0.00 | 0.00 | 77 | 1013.4 |
| 20260903135634 | 79 | 134 | 4.0 | 9.0 | 0.00 | 0.00 | 0.00 | 77 | 1013.3 |
| 20260903135124 | 78 | 121 | 3.0 | 8.0 | 0.00 | 0.00 | 0.00 | 77 | 1013.3 |
| 20260903134614 | 78 | 97 | 3.0 | 11.0 | 0.00 | 0.00 | 0.00 | 78 | 1013.4 |
| 20260903134058 | 78 | 156 | 4.0 | 10.0 | 0.00 | 0.00 | 0.00 | 77 | 1013.3 |
| 20260903133540 | 78 | 131 | 4.0 | 10.0 | 0.00 | 0.00 | 0.00 | 78 | 1013.3 |
| 20260903133531 | 78 | 112 | 4.0 | 12.0 | 0.00 | 0.00 | 0.00 | 78 | 1013.3 |
| 20260903132520 | 78 | 133 | 3.0 | 12.0 | 0.00 | 0.00 | 0.00 | 78 | 1013.2 |
| 20260903132010 | 78 | 126 | 4.0 | 11.0 | 0.00 | 0.00 | 0.00 | 78 | 1013.1 |
| 20260903131501 | 78 | 168 | 4.0 | 9.0 | 0.00 | 0.00 | 0.00 | 78 | 1013.1 |
| 20260903130952 | 77 | 118 | 4.0 | 9.0 | 0.00 | 0.00 | 0.00 | 78 | 1013.1 |
| 20260903130442 | 77 | 162 | 3.0 | 8.0 | 0.00 | 0.00 | 0.00 | 78 | 1013.1 |
| 20260903125932 | 77 | 118 | 3.0 | 9.0 | 0.00 | 0.00 | 0.00 | 78 | 1013.1 |
| 20260903125924 | 77 | 109 | 3.0 | 10.0 | 0.00 | 0.00 | 0.00 | 78 | 1013.2 |
| 20260903124913 | 77 | 126 | 2.0 | 10.0 | 0.00 | 0.00 | 0.00 | 78 | 1013.3 |
| 20260903124402 | 77 | 138 | 2.0 | 8.0 | 0.00 | 0.00 | 0.00 | 78 | 1013.2 |
| 20260903123852 | 77 | 135 | 2.0 | 8.0 | 0.00 | 0.00 | 0.00 | 78 | 1013.0 |
| 20260903123342 | 77 | 161 | 3.0 | 8.0 | 0.00 | 0.00 | 0.00 | 78 | 1013.0 |
| 20260903122832 | 77 | 143 | 4.0 | 8.0 | 0.00 | 0.00 | 0.00 | 78 | 1013.0 |
| 20260903122322 | 77 | 133 | 3.0 | 8.0 | 0.00 | 0.00 | 0.00 | 78 | 1013.0 |
| 20260903121812 | 77 | 133 | 2.0 | 7.0 | 0.00 | 0.00 | 0.00 | 77 | 1013.0 |
| 20260903121302 | 77 | 123 | 2.0 | 7.0 | 0.00 | 0.00 | 0.00 | 77 | 1012.9 |
| 20260903120752 | 77 | 150 | 3.0 | 8.0 | 0.00 | 0.00 | 0.00 | 77 | 1012.8 |
| 20260903120234 | 77 | 134 | 2.0 | 8.0 | 0.00 | 0.00 | 0.00 | 77 | 1012.8 |
| 20260903115724 | 77 | 146 | 1.0 | 4.0 | 0.00 | 0.00 | 0.00 | 76 | 1012.7 |
| 20260903115214 | 77 | 119 | 1.0 | 4.0 | 0.00 | 0.00 | 0.00 | 76 | 1012.8 |
| 20260903115205 | 77 | 113 | 2.0 | 6.0 | 0.00 | 0.00 | 0.00 | 76 | 1012.8 |
| 20260903114154 | 77 | 109 | 2.0 | 6.0 | 0.00 | 0.00 | 0.00 | 76 | 1012.8 |
| 20260903113645 | 77 | 86 | 2.0 | 6.0 | 0.00 | 0.00 | 0.00 | 76 | 1012.7 |
| 20260903113134 | 77 | 101 | 2.0 | 5.0 | 0.00 | 0.00 | 0.00 | 75 | 1012.7 |
| 20260903112623 | 78 | 95 | 2.0 | 5.0 | 0.00 | 0.00 | 0.00 | 75 | 1012.8 |
| 20260903112115 | 77 | 93 | 2.0 | 7.0 | 0.00 | 0.00 | 0.00 | 75 | 1012.8 |
| 20260903112105 | 77 | 123 | 2.0 | 7.0 | 0.00 | 0.00 | 0.00 | 75 | 1012.8 |
| 20260903111055 | 77 | 82 | 2.0 | 6.0 | 0.00 | 0.00 | 0.00 | 75 | 1012.8 |
| 20260903110544 | 77 | 95 | 2.0 | 5.0 | 0.00 | 0.00 | 0.00 | 75 | 1012.7 |